DELTA 1 DEB (YO), 228

Orbit data source: Space-Track

DELTA 1 DEB (YO), 228 is space debris in LEO originally from a launch on Thu, 08 Feb 1962 UTC launched from the Air Force Eastern Test Range (AFETR). Debris objects in space refer to the collection of defunct objects orbiting the Earth. Examples of debris include non-operational satellites, rocket bodies, and fragments generated from explosions, collisions, or faulty payload assembly.

Loading next visibility...
Identifier
228, 1962-002C
Orbit
LEO
Last TLE update
1 day ago
Origin
Manufacturer
RCA/East Windsor
Mission
Spacecraft
Bus & Motor
Unknown
Mass
~1 kg wet, ~1 kg dry
Launch date (UTC)
1962-02-08 (63 years ago)
Launch vehicle
Unknown
Launch site
Air Force Eastern Test Range (AFETR)
Object type
Payload
Rocket body
Debris
Shape & HBR
Unknown
Radar Cross Section
Small (<0.1 m²)

Expand to show TLE details & history

TLE from 1 day ago
0 DELTA 1 DEB (YO)
1 00228U 62002C   25162.52028470  .00010572  00000-0  35494-3 0  9999
2 00228  48.4347  93.3521 0009475 198.1938 161.8660 15.31250336385958
Epoch: 2025-06-11T12:29Z
TLE epoch observation values (Epoch: 2025-06-11T12:29:12.598Z)
Latitude
-0.00001°
Longitude
5.94799°
Altitude
478.631 km
Speed
7.624 km/s
True Right ascension
06h 13m 24s
True Declination
0° 00' 00"
Sunlit
Object was in daylight at epoch
Visualization orbit readout
Latitude
42.54372°
Longitude
54.20197°
Altitude
480.53 km
Speed
7.628 km/s
Apparent Right ascension
11h 34m 40s
Apparent Declination
3° 42' 52"
Sunlit
Object is in daylight
Visualization observer readout
Local Sidereal Time
01:47:41
Azimuth
43.08° NE
Elevation
-36.761°
Doppler factor
1
Orbital elements
Apogee altitude
479.607 km
Perigee altitude
466.624 km
Semi-major axis
6,851.253 km
Eccentricity
0.00095
Inclination
48.4347°
RAAN
93.3521°
Arg. of periapsis
198.1938°
True anomaly
Unknown
Mean anomaly
161.866°
Eccentric anomaly
Unknown
Mean motion
3.82726 °/min
Orbital period
94.06 mins
BSTAR
0.00035494
Loading maneuver chart data...
Loading SW <> Apogee altitude chart data...
Loading historical data...
Loading historical data...
Loading historical data...
Loading historical data...
Loading historical data...
Loading historical data...
Loading historical data...
Other satellites on launch #2 in the year 1962 (1962-02-08 UTC)

DELTA 1 DEB (YO) Visibility forecast

Observer location: undefined°, undefined°

Span
Click to sort rows by Start time (UTC) header in descending order
Start Az.
Max El. time (UTC)
Max El. Az.
Max El.
End time (UTC)
End Az.
6 mins2025-06-12 21:32:19.890Z202.597° SW2025-06-12 21:35:19.890Z146.916° SSE27.505°2025-06-12 21:38:19.890Z79.849° E
5 mins2025-06-12 23:11:19.890Z269.277° W2025-06-12 23:13:19.890Z315.896° NNW34.381°2025-06-12 23:16:19.890Z44.825° NE
4 mins2025-06-13 00:51:19.890Z326.279° NNW2025-06-13 00:52:19.890Z348.739° N20.238°2025-06-13 00:55:19.890Z46.02° ENE
4 mins2025-06-13 02:30:19.890Z339.493° N2025-06-13 02:31:19.890Z5.645° NNE24.814°2025-06-13 02:34:19.890Z71.567° E
5 mins2025-06-13 04:08:19.890Z295.985° NW2025-06-13 04:10:19.890Z177.624° S44.104°2025-06-13 04:13:19.890Z127.541° SE
|